Change the Weather History Date:

Sunday, January 20, 2013

  Actual Average Record
Temperature  
Mean Temperature 26 °F -  
Max Temperature 35 °F 37 °F 64 °F (1997)
Min Temperature 16 °F 14 °F -6 °F (2011)
Degree Days  
Heating Degree Days 40    
Moisture  
Dew Point 19 °F    
Average Humidity 83    
Maximum Humidity 92    
Minimum Humidity 67    
Precipitation  
Precipitation 0.00 in - - ()
Sea Level Pressure  
Sea Level Pressure 30.28 in    
Wind  
Wind Speed 5 mph (NNE)    
Max Wind Speed 23 mph    
Max Gust Speed 26 mph    
Visibility 10 miles    
Events      
Averages and records for this station are not official NWS values.
T = Trace of Precipitation, MM = Missing Value Source: NWS Daily Summary

Daily Weather History Graph

Daily Weather History Graph

Search for Another Location

Airport or City:

Trip Planner

Search our weather history database for the weather conditions in past years. The results will help you decide how hot, cold, wet, or windy it might be!

Date:

Astronomy

Jan. 20, 2013 Rise Set
Actual Time 7:58 AM CST 5:42 PM CST
Civil Twilight 7:28 AM CST 6:12 PM CST
Nautical Twilight 6:55 AM CST 6:45 PM CST
Astronomical Twilight 6:22 AM CST 7:18 PM CST
Moon 12:44 PM CST (1/20) 2:32 AM CST (1/20)
Length of Visible Light 10h 43m
Length of Day
9h 43m
Waxing Gibbous, 66% of the Moon is Illuminated
Jan 20
Waxing Gibbous
Jan 26
Full
Feb 3
Last Quarter
Feb 10
New
Feb 17
First Quarter

Hourly Weather History & Observations

Time (CST) Temp. Windchill Dew Point Humidity Pressure Visibility Wind Dir Wind Speed Gust Speed Precip Events Conditions
12:15 AM 28.4 °F 19.7 °F 24.6 °F 86% 30.26 in 10.0 mi ENE 9.2 mph - N/A   Clear
12:35 AM 27.9 °F 18.4 °F 24.8 °F 88% 30.25 in 10.0 mi ENE 10.4 mph - N/A   Clear
12:55 AM 27.3 °F 19.9 °F 24.8 °F 90% 30.25 in 10.0 mi East 6.9 mph - N/A   Clear
1:15 AM 26.4 °F 18.9 °F 23.7 °F 90% 30.26 in 10.0 mi East 6.9 mph - N/A   Clear
1:35 AM 25.5 °F 18.7 °F 21.4 °F 84% 30.26 in 10.0 mi East 5.8 mph - N/A   Clear
1:55 AM 24.3 °F 18.4 °F 20.3 °F 85% 30.25 in 10.0 mi ESE 4.6 mph - N/A   Clear
2:15 AM 24.3 °F 18.4 °F 21.2 °F 88% 30.24 in 10.0 mi ESE 4.6 mph - N/A   Clear
2:35 AM 23.7 °F 17.8 °F 19.6 °F 84% 30.25 in 10.0 mi ESE 4.6 mph - N/A   Clear
2:55 AM 23.5 °F 17.6 °F 19.2 °F 84% 30.25 in 10.0 mi East 4.6 mph - N/A   Clear
3:15 AM 22.1 °F 17.4 °F 19.0 °F 88% 30.25 in 10.0 mi East 3.5 mph - N/A   Clear
3:35 AM 22.3 °F - 19.4 °F 89% 30.24 in 10.0 mi Calm Calm - N/A   Clear
3:55 AM 23.2 °F - 19.4 °F 85% 30.24 in 10.0 mi Calm Calm - N/A   Clear
4:15 AM 22.6 °F - 18.9 °F 85% 30.22 in 10.0 mi Calm Calm - N/A   Clear
4:35 AM 21.9 °F - 18.3 °F 86% 30.22 in 10.0 mi Calm Calm - N/A   Clear
4:55 AM 20.3 °F 15.4 °F 17.6 °F 89% 30.21 in 10.0 mi ESE 3.5 mph - N/A   Clear
5:15 AM 19.4 °F - 17.2 °F 91% 30.21 in 10.0 mi Calm Calm - N/A   Clear
5:35 AM 19.8 °F - 17.6 °F 91% 30.20 in 10.0 mi Calm Calm - N/A   Clear
5:55 AM 20.1 °F - 17.6 °F 90% 30.21 in 10.0 mi Calm Calm - N/A   Clear
6:15 AM 18.5 °F - 16.5 °F 92% 30.22 in 10.0 mi Calm Calm - N/A   Clear
6:35 AM 16.7 °F - 14.5 °F 91% 30.21 in 10.0 mi Calm Calm - N/A   Clear
6:55 AM 17.6 °F - 15.4 °F 91% 30.21 in 10.0 mi Calm Calm - N/A   Clear
7:15 AM 16.0 °F - 13.8 °F 91% 30.21 in 10.0 mi Calm Calm - N/A   Clear
7:35 AM 16.3 °F - 14.0 °F 90% 30.21 in 10.0 mi Calm Calm - N/A   Clear
7:55 AM 18.1 °F 12.9 °F 16.2 °F 92% 30.20 in 10.0 mi South 3.5 mph - N/A   Clear
8:15 AM 18.5 °F 13.3 °F 16.5 °F 92% 30.20 in 10.0 mi SSE 3.5 mph - N/A   Clear
8:35 AM 19.4 °F - 16.9 °F 90% 30.22 in 10.0 mi Calm Calm - N/A   Clear
8:55 AM 20.7 °F - 18.3 °F 91% 30.23 in 10.0 mi Calm Calm - N/A   Scattered Clouds
9:15 AM 22.6 °F - 19.9 °F 89% 30.24 in 10.0 mi Calm Calm - N/A   Scattered Clouds
9:35 AM 24.1 °F - 21.4 °F 89% 30.25 in 10.0 mi Calm Calm - N/A   Scattered Clouds
9:55 AM 23.9 °F - 20.7 °F 87% 30.26 in 10.0 mi Calm Calm - N/A   Mostly Cloudy
10:15 AM 25.3 °F - 22.1 °F 87% 30.27 in 10.0 mi Calm Calm - N/A   Overcast
10:35 AM 26.2 °F - 22.1 °F 84% 30.28 in 10.0 mi Calm Calm - N/A   Overcast
10:55 AM 27.5 °F - 22.1 °F 80% 30.29 in 10.0 mi Calm Calm - N/A   Overcast
11:15 AM 28.2 °F 24.4 °F 23.4 °F 82% 30.29 in 10.0 mi WSW 3.5 mph - N/A   Overcast
11:35 AM 28.8 °F - 23.7 °F 81% 30.30 in 10.0 mi Calm Calm - N/A   Overcast
11:55 AM 29.1 °F - 24.3 °F 82% 30.29 in 10.0 mi Calm Calm - N/A   Overcast
12:15 PM 30.2 °F 25.4 °F 25.2 °F 82% 30.27 in 10.0 mi West 4.6 mph - N/A   Overcast
12:35 PM 31.6 °F 28.3 °F 26.2 °F 80% 30.27 in 10.0 mi West 3.5 mph - N/A   Overcast
12:55 PM 32.0 °F 26.4 °F 26.6 °F 80% 30.26 in 10.0 mi WNW 5.8 mph - N/A   Overcast
1:15 PM 33.1 °F 28.7 °F 27.1 °F 79% 30.25 in 10.0 mi West 4.6 mph - N/A   Mostly Cloudy
1:35 PM 33.8 °F - 27.3 °F 77% 30.24 in 10.0 mi Calm Calm - N/A   Mostly Cloudy
1:55 PM 34.5 °F 31.6 °F 27.3 °F 75% 30.25 in 10.0 mi NNW 3.5 mph - N/A   Mostly Cloudy
2:15 PM 35.2 °F 31.2 °F 27.5 °F 73% 30.24 in 10.0 mi NE 4.6 mph - N/A   Overcast
2:35 PM 35.6 °F 29.9 °F 27.5 °F 72% 30.24 in 10.0 mi East 6.9 mph - N/A   Overcast
2:55 PM 34.3 °F 26.5 °F 25.9 °F 71% 30.27 in 10.0 mi ENE 10.4 mph - N/A   Overcast
3:15 PM 31.8 °F 19.0 °F 22.8 °F 69% 30.29 in 10.0 mi North 23.0 mph 26.5 mph N/A   Overcast
3:35 PM 28.8 °F 16.2 °F 20.3 °F 71% 30.30 in 10.0 mi NNE 18.4 mph - N/A   Overcast
3:55 PM 28.4 °F 17.0 °F 20.1 °F 71% 30.31 in 10.0 mi NNE 15.0 mph - N/A   Mostly Cloudy
4:15 PM 29.3 °F 18.2 °F 20.1 °F 69% 30.32 in 10.0 mi NNE 15.0 mph - N/A   Scattered Clouds
4:35 PM 29.1 °F 17.9 °F 19.2 °F 67% 30.32 in 10.0 mi North 15.0 mph 20.7 mph N/A   Clear
4:55 PM 27.5 °F 15.4 °F 17.8 °F 67% 30.32 in 10.0 mi North 16.1 mph - N/A   Clear
5:15 PM 26.1 °F 14.5 °F 17.2 °F 69% 30.34 in 10.0 mi North 13.8 mph - N/A   Clear
5:35 PM 24.4 °F 13.5 °F 16.7 °F 72% 30.34 in 10.0 mi North 11.5 mph - N/A   Clear
5:55 PM 23.0 °F 13.9 °F 16.2 °F 75% 30.33 in 10.0 mi North 8.1 mph - N/A   Clear
6:15 PM 21.6 °F 15.3 °F 15.1 °F 76% 30.34 in 10.0 mi North 4.6 mph - N/A   Clear
6:35 PM 20.1 °F 15.2 °F 14.7 °F 80% 30.34 in 10.0 mi North 3.5 mph - N/A   Clear
6:55 PM 19.8 °F - 14.9 °F 81% 30.34 in 10.0 mi Calm Calm - N/A   Clear
7:15 PM 18.5 °F - 14.4 °F 84% 30.35 in 10.0 mi Calm Calm - N/A   Clear
7:35 PM 18.9 °F - 14.7 °F 84% 30.35 in 10.0 mi Calm Calm - N/A   Clear
7:55 PM 19.2 °F - 15.3 °F 85% 30.34 in 10.0 mi Calm Calm - N/A   Clear
8:15 PM 19.2 °F - 14.5 °F 82% 30.34 in 10.0 mi Calm Calm - N/A   Clear
8:35 PM 19.2 °F - 15.8 °F 87% 30.34 in 10.0 mi Calm Calm - N/A   Clear
8:55 PM 18.5 °F 10.4 °F 15.3 °F 87% 30.35 in 10.0 mi North 5.8 mph - N/A   Clear
9:15 PM 18.1 °F - 14.9 °F 87% 30.35 in 10.0 mi Calm Calm - N/A   Clear
9:35 PM 18.5 °F 11.7 °F 14.9 °F 86% 30.38 in 10.0 mi NW 4.6 mph - N/A   Clear
9:55 PM 18.1 °F 11.3 °F 14.0 °F 84% 30.38 in 10.0 mi West 4.6 mph - N/A   Clear
10:15 PM 17.6 °F 10.7 °F 14.0 °F 86% 30.39 in 10.0 mi West 4.6 mph - N/A   Clear
10:35 PM 18.0 °F 8.7 °F 14.5 °F 86% 30.39 in 10.0 mi West 6.9 mph - N/A   Mostly Cloudy
10:55 PM 19.4 °F 11.5 °F 15.4 °F 85% 30.38 in 10.0 mi West 5.8 mph - N/A   Overcast
11:15 PM 19.8 °F 13.2 °F 15.6 °F 84% 30.37 in 10.0 mi West 4.6 mph - N/A   Overcast
11:35 PM 20.1 °F 12.3 °F 16.0 °F 84% 30.37 in 10.0 mi West 5.8 mph - N/A   Overcast
11:55 PM 20.8 °F 14.4 °F 16.3 °F 83% 30.37 in 10.0 mi West 4.6 mph - N/A   Overcast